Wind_Speed
22 23 24 25 25 25 26 29 31 34 37 40 42 43 43 44 46 47 49 50 51 52 52 53 54 55 54 55 55 56 55 53 52 52 51 51 49 49 50 51 51 50 49 48 46 44 44 44 44 43 42 41 42 42 43 44 44 44 44 44 44 44 44 44 42 41 39 39 39 39 39 38 39 40 40 40 40 40 39 37 36 36 35 35 35
19 21 23 24 24 25 26 27 29 31 34 37 39 41 42 43 43 44 46 47 49 50 51 52 53 55 54 55 55 56 57 56 56 56 56 55 53 52 52 53 53 52 51 50 49 47 46 46 45 44 44 42 42 42 42 42 43 43 43 43 43 43 44 44 43 42 41 41 41 41 41 41 42 44 44 44 43 42 43 42 40 39 38 37 37
16 18 20 22 23 24 25 26 27 29 31 34 36 39 41 42 43 43 44 45 47 48 49 51 52 54 54 54 55 56 58 59 58 59 60 59 58 57 57 56 56 54 54 53 52 51 48 48 47 46 45 44 43 43 43 43 43 43 43 44 43 43 44 44 43 42 42 42 42 42 42 43 45 48 48 48 46 45 45 46 46 43 41 40 39
14 16 18 20 22 23 24 25 26 27 29 31 33 36 39 41 42 43 43 44 45 46 48 49 51 53 54 54 55 55 55 56 58 58 60 60 59 59 58 57 57 56 54 54 53 51 49 47 47 46 45 44 44 43 43 44 44 43 43 44 44 44 44 43 43 43 43 42 42 43 44 47 49 51 51 51 50 49 47 47 49 50 47 44 43
12 14 16 18 20 21 23 23 24 25 27 28 31 33 36 38 40 42 43 44 44 45 46 48 49 51 52 53 54 54 52 51 52 54 55 56 56 55 56 56 56 56 54 53 51 51 49 47 46 45 44 44 43 42 41 42 42 43 43 44 44 45 45 44 44 44 44 45 45 47 49 51 53 53 52 52 52 52 51 50 50 52 52 50 48
12 12 14 16 18 19 21 22 22 23 24 26 28 31 33 36 38 40 42 44 45 46 47 48 49 50 51 52 53 53 51 50 50 50 51 53 53 51 52 53 54 55 55 54 53 52 50 49 47 46 45 44 44 43 42 42 42 43 43 44 45 46 46 46 47 47 47 48 50 52 54 56 56 55 53 53 53 53 54 53 53 53 53 53 52
11 11 12 14 16 18 19 21 21 22 22 24 26 29 31 33 35 37 39 42 44 46 47 48 49 50 51 51 52 52 52 53 53 52 51 51 51 51 52 52 52 53 54 55 55 55 55 53 52 51 51 50 48 47 46 46 46 46 46 47 47 48 49 49 50 51 53 54 56 58 59 59 59 58 57 55 55 55 55 55 56 55 54 53 53
10 11 11 13 14 16 18 19 21 22 22 23 24 26 29 31 32 34 36 39 41 44 46 47 49 50 51 51 52 52 53 54 55 56 55 54 52 52 53 53 52 52 52 52 54 56 58 58 58 57 57 56 56 55 55 54 54 53 54 54 54 55 56 57 58 59 60 61 61 61 61 61 61 60 59 57 57 57 57 56 56 56 56 53 52
10 11 11 12 13 14 16 17 19 21 22 23 23 25 26 28 31 32 34 36 38 40 42 44 46 48 49 50 51 52 54 55 56 56 58 58 58 57 57 57 56 55 54 53 53 54 57 59 60 59 59 60 60 61 61 62 62 62 63 63 63 62 63 63 64 64 64 63 63 63 62 61 60 59 58 58 58 58 58 57 56 56 56 54 53
11 11 11 11 12 13 14 15 17 19 20 22 23 24 26 27 29 31 33 35 37 39 41 43 45 46 48 49 50 52 53 54 56 57 58 59 61 62 62 62 62 60 59 58 57 57 57 57 57 57 56 59 61 62 63 63 63 64 64 64 64 63 62 62 62 62 62 63 63 64 63 61 58 58 58 58 58 58 58 58 57 57 57 56 54
12 12 11 11 11 12 13 14 16 17 18 19 21 23 25 26 28 29 31 33 35 37 39 41 43 45 47 48 50 50 51 52 53 55 56 57 58 59 62 63 64 63 63 62 61 61 61 59 59 58 56 56 58 60 61 61 59 58 59 60 60 60 60 60 61 62 62 63 64 64 64 62 58 56 57 56 56 56 57 58 58 58 59 59 57
13 13 12 12 12 12 13 14 15 16 17 18 19 21 23 25 26 27 29 30 32 34 36 38 40 42 44 46 48 49 50 51 52 53 54 54 55 55 57 59 61 62 62 62 62 62 62 62 61 61 60 58 58 59 59 59 57 56 56 59 60 61 62 62 64 65 66 65 65 65 66 65 60 56 55 54 54 54 55 57 58 58 60 61 60
14 14 14 14 13 13 13 13 14 15 17 18 19 20 21 23 24 25 26 27 29 30 31 32 34 36 38 41 43 44 46 47 48 50 51 52 52 53 54 56 58 59 60 61 61 62 62 62 62 62 62 61 60 60 61 61 60 59 58 60 62 63 64 65 68 69 69 68 67 65 65 64 61 56 54 54 53 53 54 55 57 59 60 61 62
15 15 15 15 15 15 15 14 14 15 15 17 17 18 19 21 22 23 24 25 26 27 28 29 30 32 33 35 37 38 39 40 42 43 45 46 48 49 50 52 54 56 57 58 59 60 61 62 62 62 62 62 61 62 62 63 64 65 64 65 66 67 68 69 71 71 70 68 66 64 62 61 60 56 54 53 53 54 54 55 56 59 61 62 63
17 17 17 17 17 16 16 16 16 16 16 16 17 17 18 19 20 21 22 23 24 25 26 27 28 29 30 31 32 33 34 34 35 36 38 39 40 42 44 45 47 49 51 52 54 55 56 57 58 59 59 60 60 61 61 62 63 65 66 67 68 69 70 70 69 68 67 65 63 61 60 59 57 56 55 54 54 55 55 56 56 58 60 62 63
18 18 18 18 18 18 18 18 18 18 17 17 17 17 17 18 18 19 20 21 21 22 23 24 25 26 27 28 29 30 30 31 31 31 32 33 34 35 37 38 39 40 42 43 45 46 47 48 49 50 51 52 53 54 55 56 57 59 60 62 63 63 63 63 62 62 61 60 59 58 58 57 56 55 55 54 55 55 56 57 56 57 58 60 62
19 19 19 19 20 20 20 20 19 19 19 19 19 19 18 18 18 18 19 19 19 20 20 21 22 23 23 24 25 26 27 27 27 28 28 29 30 30 31 32 33 33 34 35 36 38 38 39 40 41 42 43 44 45 46 48 49 50 51 52 53 54 54 54 54 54 54 55 55 55 55 55 55 55 54 54 55 55 56 57 57 57 58 59 60
21 21 20 20 20 21 21 21 21 21 21 21 21 21 20 20 20 19 19 19 19 19 19 19 19 20 20 20 21 22 22 23 24 24 25 25 26 26 27 27 28 28 29 30 31 32 33 34 35 35 36 37 38 39 40 41 42 43 45 46 47 47 48 49 49 49 50 50 51 51 52 52 53 53 54 53 54 54 55 56 56 57 58 59 60
23 22 22 22 22 22 22 22 22 22 23 23 23 23 23 22 22 22 21 21 21 20 20 20 20 20 20 19 19 19 19 19 20 20 20 21 21 21 22 23 23 24 24 25 26 28 29 30 31 31 32 33 34 35 36 37 38 39 40 42 43 44 44 45 46 46 47 48 48 49 49 50 50 51 52 52 52 52 53 54 54 55 56 57 59
24 24 24 24 24 24 24 24 24 24 24 25 25 25 25 24 24 24 23 23 23 23 23 22 22 22 21 21 20 20 19 19 19 19 19 19 19 19 19 19 20 20 21 21 22 23 24 26 27 28 29 30 31 32 34 35 36 37 38 39 40 41 42 42 43 44 44 45 46 47 47 48 48 49 49 50 50 50 50 51 51 52 53 54 56
26 26 26 26 26 26 26 26 26 26 27 27 27 26 26 26 26 26 26 26 26 25 25 24 24 24 23 23 22 21 21 21 20 20 20 20 20 20 20 20 20 21 21 22 22 23 23 24 25 26 27 29 30 31 32 34 35 36 37 38 39 40 41 41 42 42 43 43 44 44 45 46 46 46 46 46 46 47 47 47 48 49 50 51 52
27 27 27 27 28 28 28 28 29 29 29 29 29 28 28 28 28 28 28 28 28 27 27 26 26 25 25 24 24 23 23 23 22 22 22 23 23 23 23 23 23 23 24 24 25 25 25 26 26 27 28 29 30 32 33 34 35 36 38 39 40 40 41 42 42 43 43 43 44 44 44 44 44 45 44 44 43 44 44 44 45 46 47 48 49
29 29 29 28 29 29 30 30 31 32 32 31 31 30 30 30 30 30 30 30 29 28 28 27 26 26 25 25 24 24 24 24 24 25 25 25 25 25 25 25 26 26 26 27 27 28 28 29 29 30 31 32 32 34 35 36 37 38 39 40 41 42 42 43 43 44 44 45 45 45 45 45 45 45 44 44 43 43 43 43 43 44 45 45 46
31 31 30 30 30 30 30 31 32 33 34 34 33 32 32 32 31 31 31 31 30 29 28 28 27 26 26 25 25 25 25 25 26 26 27 27 27 27 27 27 27 28 28 29 30 30 31 32 32 33 33 34 35 36 36 37 38 39 40 40 41 42 42 43 44 44 45 46 46 47 47 47 47 47 46 46 45 43 43 42 42 43 44 44 44
33 33 32 32 32 31 31 31 32 33 34 35 35 34 34 33 32 32 32 31 31 30 30 30 29 29 29 29 28 28 28 28 28 28 28 28 28 29 29 29 29 29 30 30 31 32 32 33 34 34 35 35 36 36 37 37 38 38 39 39 40 41 42 43 43 44 45 46 46 47 48 47 48 48 47 47 46 44 43 41 43 45 45 44 44
35 35 34 34 34 34 32 32 33 33 34 35 36 37 36 35 34 34 33 33 33 33 33 32 32 32 32 32 32 31 31 30 30 30 30 30 30 31 31 31 31 31 32 32 33 33 33 34 35 35 35 36 36 36 36 36 37 37 37 37 38 38 39 40 41 42 44 45 46 46 48 47 48 48 47 47 47 46 44 42 45 48 47 46 46
36 37 35 35 36 36 34 35 34 34 34 35 36 37 38 38 38 37 36 36 36 36 36 35 35 35 35 34 34 33 33 32 32 32 32 32 32 32 33 33 33 33 34 34 35 35 35 36 36 36 36 36 36 37 37 37 37 37 37 36 36 37 37 38 39 41 42 43 45 46 47 47 47 48 48 48 49 48 47 45 47 51 51 49 49
37 37 36 37 37 36 36 37 36 35 35 36 37 37 38 39 40 40 39 39 40 40 39 38 38 37 37 36 35 35 35 35 34 34 34 34 33 34 34 34 34 34 35 35 36 36 37 37 38 38 38 38 38 38 38 38 38 38 38 38 38 38 38 39 39 40 41 42 44 45 47 48 48 49 49 50 51 51 50 49 50 53 54 53 52
37 36 36 38 37 37 38 39 37 36 37 38 38 38 38 39 40 41 41 41 42 42 41 41 40 39 39 38 37 37 37 37 36 36 35 35 35 35 36 36 36 36 36 36 37 37 37 38 38 39 39 39 39 40 40 40 40 40 40 40 40 40 40 41 41 41 42 42 43 44 47 48 48 50 51 52 53 54 53 53 53 54 56 57 56
36 35 36 37 37 38 39 39 38 38 38 39 39 39 38 39 40 41 41 42 43 42 42 42 42 41 40 39 38 38 38 38 38 38 37 37 37 37 38 38 38 38 38 38 38 39 39 39 40 40 40 41 41 41 42 42 42 42 42 42 42 42 42 42 43 43 44 44 44 45 46 48 49 51 52 53 55 56 56 55 57 57 58 59 58
38 37 37 37 38 38 38 38 38 39 39 40 40 39 40 40 41 41 41 42 43 43 43 43 42 42 41 40 40 40 40 40 39 39 38 38 38 39 39 39 39 39 38 39 39 40 40 41 41 42 42 42 42 43 43 43 44 44 43 43 44 44 44 45 45 45 45 46 46 46 47 48 49 51 52 54 56 58 57 56 58 60 59 59 61
41 40 39 39 39 38 38 38 38 40 40 40 40 40 41 41 42 42 42 42 43 44 44 43 43 43 42 41 41 41 41 41 40 39 38 38 39 39 39 39 39 39 39 39 40 41 42 42 43 43 44 43 43 44 44 45 45 45 45 45 46 46 47 47 48 48 48 48 48 48 48 49 50 51 51 52 55 56 57 57 58 60 61 62 63
44 42 42 42 41 39 39 40 40 40 41 41 42 42 42 42 43 43 43 44 44 44 45 45 44 44 43 42 43 43 42 42 41 40 40 39 39 40 40 40 40 40 40 41 41 42 43 44 44 45 45 45 46 45 45 46 47 47 47 48 48 49 49 50 50 50 50 50 50 50 50 50 51 51 51 52 53 54 56 58 58 60 63 63 64
46 45 45 44 43 43 42 42 41 41 41 42 43 43 43 43 44 44 44 45 45 46 46 46 46 46 45 45 45 44 44 43 42 41 41 41 41 41 41 42 42 42 42 42 42 42 43 44 45 46 47 48 48 48 48 48 48 49 50 50 50 51 51 52 52 53 53 53 52 52 52 52 52 53 53 54 55 55 56 58 58 60 62 64 65
47 46 47 46 46 46 45 44 44 43 43 44 44 44 45 45 45 45 45 46 46 47 47 47 48 48 48 47 46 46 46 45 44 44 43 42 42 42 43 44 44 44 44 44 44 43 43 44 45 46 48 49 50 50 50 50 50 51 51 52 52 52 53 54 54 54 55 55 55 54 54 55 55 56 56 57 57 58 58 59 59 60 62 64 64
49 48 48 48 49 49 48 48 47 46 45 46 46 46 47 48 48 48 48 48 48 48 48 48 49 50 50 49 49 49 49 48 47 47 46 46 45 46 46 46 46 47 47 47 46 47 47 47 47 47 48 50 51 52 53 53 52 53 53 53 53 54 54 55 56 57 57 57 57 57 57 57 57 58 58 59 59 59 60 60 60 61 61 63 64
50 51 51 50 51 51 51 51 50 49 48 48 49 49 49 50 51 51 51 52 51 51 50 50 51 52 52 51 51 51 51 51 51 50 50 50 49 49 49 49 49 49 49 49 49 50 50 50 50 50 51 51 53 54 54 55 54 54 54 55 55 56 57 58 58 59 59 59 59 58 58 58 58 58 59 59 60 60 60 61 61 61 62 63 64
46 50 52 53 54 54 54 53 53 52 51 51 51 51 52 53 53 53 54 54 55 54 53 53 55 55 55 55 55 54 55 55 54 54 54 53 53 53 53 52 52 52 52 52 52 53 53 53 54 54 54 55 55 56 56 56 57 56 56 56 57 58 59 60 61 61 62 62 61 61 62 61 61 61 62 62 62 62 63 63 64 64 65 66 66
42 45 49 53 56 57 57 56 56 55 53 53 53 53 53 54 54 55 55 56 56 55 55 56 57 58 58 58 58 58 59 58 58 58 58 57 56 56 56 55 55 55 55 55 55 56 56 56 56 57 57 57 57 57 57 58 58 58 58 58 59 60 61 63 63 64 65 65 65 66 66 66 66 66 66 66 66 67 67 68 69 70 70 71 71
40 41 43 47 51 56 58 59 59 57 56 56 56 56 55 55 56 56 56 57 57 57 57 58 58 59 59 59 60 61 61 61 61 61 61 60 59 58 57 57 57 57 57 57 57 57 58 58 59 59 59 59 59 58 58 58 59 59 60 60 60 61 63 65 66 66 67 68 68 69 70 70 70 70 71 71 71 72 73 73 74 75 76 77 77
40 40 41 42 44 49 54 59 60 60 59 59 59 58 59 59 59 59 59 58 58 59 60 60 60 60 60 60 61 61 61 62 62 62 62 61 60 59 58 58 58 58 58 58 58 59 60 60 61 60 60 59 60 59 59 59 59 60 61 61 62 63 65 67 68 68 69 70 70 71 71 72 73 73 74 75 75 76 77 78 79 80 81 81 82
41 42 42 42 42 43 46 51 56 60 62 62 61 60 61 61 61 61 61 61 60 61 62 61 61 61 61 61 61 61 61 62 62 61 61 60 59 59 59 58 58 58 59 59 60 61 61 62 61 61 61 61 61 61 61 61 62 62 63 63 63 64 66 68 69 70 71 72 72 73 73 74 75 75 77 78 79 80 81 82 83 84 84 85 85
42 43 43 43 43 44 44 45 48 53 57 60 61 61 62 62 62 63 63 62 62 63 63 62 62 62 61 61 60 60 61 62 62 61 60 59 59 59 58 58 59 59 60 61 61 62 62 62 62 62 62 63 63 63 63 64 64 65 66 66 66 66 66 68 69 71 72 74 74 75 76 76 77 78 80 81 82 83 85 86 86 87 87 88 88
44 44 44 44 44 46 46 45 45 47 50 53 55 57 58 59 60 61 61 61 61 61 61 61 60 60 59 58 58 59 59 59 60 60 59 58 58 58 58 59 59 60 60 60 60 60 61 61 62 63 64 64 65 65 66 66 67 68 68 69 70 70 70 70 71 72 74 76 77 78 78 79 80 81 83 84 85 86 87 88 89 90 90 90 91
48 48 47 46 46 46 46 47 47 48 49 49 50 51 52 53 54 55 56 56 56 56 56 56 55 54 54 55 55 56 56 57 57 57 57 57 58 58 59 59 59 59 59 59 59 60 61 62 63 65 66 67 67 67 68 68 69 70 71 72 73 74 74 74 74 74 75 77 79 81 82 82 83 84 85 87 88 89 90 91 92 92 93 93 94
53 52 51 50 49 48 47 48 49 50 51 51 51 51 51 51 51 51 52 53 53 53 54 53 52 52 53 53 54 54 55 56 56 57 58 58 58 58 58 59 59 59 60 60 61 61 62 64 65 66 68 69 69 69 70 70 71 72 73 74 75 76 77 78 78 78 79 80 82 84 85 86 87 88 89 90 91 92 93 94 95 95 95 96 97
55 55 54 53 52 51 51 51 52 52 52 53 53 54 54 54 53 53 54 54 54 55 55 53 52 53 53 53 54 55 57 58 58 59 59 59 59 59 59 60 60 61 61 62 62 63 64 65 66 68 69 70 71 71 72 72 73 74 75 76 76 77 79 80 81 82 82 83 84 85 87 89 91 92 93 94 95 96 96 97 97 98 98 98 99
57 55 55 55 55 55 55 55 55 54 53 54 54 54 55 55 56 56 57 57 57 57 56 54 55 55 55 56 57 58 59 60 60 60 60 60 60 60 61 61 62 63 63 63 64 65 66 67 68 70 71 71 72 73 73 74 75 75 76 77 78 78 79 81 82 83 84 85 87 87 88 90 92 94 94 96 97 97 98 98 99 99 99 99 100
59 57 57 57 57 57 58 57 57 56 56 56 56 56 56 56 57 57 58 59 59 59 58 57 58 58 59 59 60 61 62 62 63 63 63 63 63 63 62 62 63 64 64 65 66 67 68 70 70 71 72 73 74 75 76 76 77 77 78 79 79 80 81 82 83 85 85 87 89 89 89 89 91 93 94 95 97 97 98 99 99 100 100 100 101
61 61 61 61 60 60 59 59 59 58 58 59 59 60 60 59 59 59 60 61 61 61 62 62 62 62 62 62 63 63 64 64 65 65 66 66 66 65 65 65 65 66 67 68 69 69 70 71 72 73 74 75 76 77 78 78 79 79 80 81 81 82 83 84 85 86 87 88 90 92 92 91 92 93 93 94 96 98 99 100 101 101 101 102 102
61 63 64 64 63 62 62 61 61 61 61 62 62 62 62 62 62 62 62 62 63 63 64 65 65 64 63 63 63 63 63 63 63 65 66 67 67 67 67 67 67 68 68 68 69 70 71 72 73 75 76 77 77 78 79 80 81 82 82 83 84 85 85 87 87 88 89 90 92 94 95 95 95 96 96 95 96 97 99 101 102 103 103 103 104
Wind_Direction
246 243 241 239 238 239 239 237 232 228 226 224 222 221 222 223 225 226 227 228 228 227 227 227 228 229 229 228 229 231 232 230 232 233 233 233 234 236 239 241 240 239 241 242 242 242 245 247 246 246 246 246 247 249 250 251 252 252 251 251 252 253 254 255 256 258 261 262 263 265 267 269 272 273 273 269 264 258 253 252 252 253 253 255 257
249 244 242 240 239 238 238 238 236 232 229 226 223 221 220 221 223 225 226 227 228 228 227 227 228 229 230 230 230 232 232 231 231 233 234 234 235 236 238 240 242 242 242 243 243 244 246 247 247 247 247 246 247 248 250 251 253 253 253 254 255 255 256 256 258 261 263 264 266 268 270 273 275 277 278 274 269 261 255 253 255 255 254 254 255
254 248 244 241 239 238 237 236 235 234 232 229 227 223 221 220 220 222 224 226 227 228 228 228 228 229 230 232 232 234 235 235 235 236 237 237 238 240 241 241 242 244 244 245 246 247 248 247 247 247 247 247 247 249 251 252 254 255 256 256 257 257 257 258 259 260 262 264 266 268 270 273 277 279 279 277 272 266 259 254 255 257 257 256 255
257 252 247 244 241 239 237 236 234 233 233 232 231 228 225 222 221 221 223 224 226 228 228 229 229 229 230 232 234 236 239 240 240 240 240 240 240 241 241 241 241 242 244 245 245 246 246 246 247 247 248 249 249 251 252 253 254 255 255 256 256 256 256 256 256 257 258 260 262 265 269 273 276 278 278 276 273 270 265 259 256 257 258 258 258
258 253 249 247 243 241 239 237 234 233 232 232 233 232 231 228 225 223 223 223 225 226 228 229 230 230 231 231 233 235 237 239 242 244 244 243 243 242 240 240 240 240 241 242 242 242 242 243 245 247 248 249 249 250 251 252 253 254 254 254 254 254 254 254 253 253 254 256 259 264 268 272 275 276 275 273 272 270 269 266 261 258 257 258 258
261 253 249 247 245 243 240 239 236 234 232 231 232 233 234 233 231 228 226 225 225 225 226 227 229 230 231 232 232 234 234 232 236 242 245 245 244 243 241 240 240 239 239 239 240 240 241 242 244 246 247 248 247 247 248 248 249 251 251 251 251 251 251 251 251 252 254 257 261 266 269 272 273 273 272 270 269 268 268 268 266 263 261 259 258
261 255 250 246 244 243 241 240 238 235 232 230 230 232 233 234 234 233 231 229 228 227 227 227 228 229 230 232 233 235 235 233 233 236 240 243 244 243 243 243 242 242 241 241 241 240 240 242 245 247 248 248 248 248 248 248 248 248 249 250 250 251 251 251 253 255 257 261 264 267 269 271 272 272 271 268 266 265 265 266 266 266 265 261 257
258 254 251 246 243 242 240 238 237 235 232 229 229 230 232 234 235 235 235 234 232 231 231 230 229 230 230 232 234 236 237 237 236 236 237 240 242 243 244 245 245 245 244 244 245 247 246 245 246 249 250 250 250 251 251 252 252 252 252 252 253 253 255 256 257 259 261 263 265 267 268 270 272 271 269 267 265 264 265 265 265 266 266 264 257
261 254 250 246 243 241 241 239 236 234 232 230 229 229 231 233 234 235 236 236 236 235 234 234 233 233 233 233 235 237 239 240 240 239 238 239 240 242 244 246 247 247 246 246 247 251 254 254 253 254 255 254 254 254 256 257 257 257 256 256 257 257 258 259 259 260 262 263 265 266 267 270 272 271 269 266 263 262 262 263 263 264 265 265 259
269 261 254 249 244 241 241 241 239 237 234 232 231 231 232 233 234 235 236 237 237 237 236 236 236 236 236 236 237 239 240 241 241 242 242 242 242 244 245 246 248 248 248 248 247 249 253 257 259 260 261 261 261 262 263 263 263 262 261 260 260 259 259 260 261 261 263 266 268 268 267 269 271 270 268 265 262 261 260 260 260 260 261 261 259
269 268 265 259 251 245 241 240 241 240 239 235 233 232 232 232 233 234 234 235 236 236 237 237 238 238 239 239 239 240 240 241 242 243 244 245 245 246 246 247 248 249 250 250 250 250 252 254 257 259 259 261 263 266 268 268 268 267 266 267 266 265 265 266 267 267 270 273 274 274 272 271 271 269 267 263 261 260 259 259 259 258 258 257 256
266 267 267 265 260 254 247 242 240 239 239 237 235 232 231 231 231 232 232 233 233 234 235 237 238 240 241 242 242 242 242 243 243 244 245 246 247 248 247 247 247 248 250 251 251 252 253 254 255 258 259 258 258 259 263 265 266 265 264 267 269 270 271 271 272 274 275 276 275 274 273 272 271 269 265 261 259 259 259 259 258 258 258 257 256
264 264 262 262 261 258 254 249 244 240 238 237 235 234 232 232 231 231 232 232 232 233 234 235 237 239 241 243 244 245 245 245 246 247 247 248 248 249 249 248 248 248 249 250 251 252 253 254 255 257 258 259 257 255 256 256 258 259 259 261 264 266 268 270 272 274 274 274 273 271 270 269 269 268 263 259 257 258 258 258 258 257 257 257 257
260 258 258 260 260 259 257 254 251 246 242 240 238 236 235 234 233 233 233 233 233 233 234 235 236 237 239 240 242 243 244 245 246 247 248 249 249 250 251 251 251 251 251 251 252 252 253 254 255 256 257 257 257 256 256 255 255 256 257 258 260 262 264 267 269 270 271 271 270 269 267 266 266 265 262 259 257 257 258 259 258 257 256 257 257
255 255 255 256 257 257 257 255 253 251 248 245 243 241 239 237 236 235 235 235 235 235 235 235 236 237 237 238 239 240 241 242 244 245 247 248 249 250 251 252 252 253 253 254 254 255 255 255 255 256 256 256 256 256 256 256 256 256 256 257 258 260 262 264 265 267 268 268 267 266 265 264 263 262 260 258 257 256 256 257 257 257 256 256 256
250 252 253 253 254 253 253 253 252 251 249 248 246 244 243 241 240 238 238 238 237 237 237 237 237 238 238 239 240 240 241 242 243 244 246 247 248 250 251 252 253 254 254 255 255 256 256 256 255 255 255 255 255 255 255 256 256 256 256 257 257 258 260 261 262 263 263 263 263 262 262 261 260 259 258 257 256 256 255 255 255 255 255 255 255
246 248 250 251 251 251 251 251 250 250 249 249 248 247 245 243 242 241 241 241 241 241 240 240 239 239 239 239 239 240 240 241 242 243 244 245 246 247 249 250 251 252 253 253 254 254 255 255 255 254 254 254 254 254 255 255 255 256 256 257 257 258 259 260 260 260 260 261 261 261 260 260 259 258 257 257 256 256 256 256 255 255 254 254 254
243 244 246 248 248 247 248 248 247 247 248 248 248 248 248 247 245 244 244 243 243 244 244 245 244 243 242 241 239 239 239 238 239 239 240 241 242 243 244 246 247 248 249 250 251 252 253 254 254 255 255 255 255 256 256 257 257 258 258 258 259 259 260 260 260 260 260 260 260 261 261 260 260 259 259 258 257 256 256 257 257 256 256 255 255
242 242 243 244 244 244 243 243 243 242 243 244 245 246 247 247 246 245 245 244 244 244 244 246 246 247 247 246 245 245 244 243 243 243 243 243 243 244 245 246 246 247 248 248 249 250 251 252 254 255 255 256 256 256 257 258 259 259 260 260 260 260 260 260 261 260 260 260 260 261 260 261 260 260 259 259 259 258 257 257 257 257 257 257 257
242 241 241 241 241 241 240 240 239 238 238 239 240 241 242 243 244 244 243 243 242 242 242 243 244 245 247 247 248 249 249 249 250 250 250 250 250 250 251 252 252 254 254 255 255 255 256 256 257 258 259 260 260 260 260 261 261 262 263 263 263 263 263 263 263 263 263 262 262 262 261 261 261 261 260 260 260 259 258 258 257 257 257 257 257
243 242 241 241 241 240 239 238 238 237 236 236 236 236 237 239 240 241 241 240 240 240 240 240 241 242 243 245 246 247 248 248 249 249 250 250 251 252 253 254 256 257 259 260 261 262 263 263 264 265 265 266 266 267 267 267 267 268 268 269 269 269 269 269 268 268 267 267 266 266 265 265 264 263 263 262 261 261 260 259 257 257 256 257 257
245 244 243 242 242 241 239 239 238 237 237 236 235 235 234 235 236 236 237 237 238 238 238 238 238 239 239 240 241 242 243 244 245 246 247 248 249 250 251 252 254 255 257 258 259 261 261 262 263 263 264 264 265 266 266 267 268 269 269 270 271 271 272 272 272 272 272 272 271 271 270 270 269 268 267 266 265 264 263 261 260 259 258 257 258
248 247 245 244 243 242 240 239 239 238 238 237 236 234 233 233 233 232 233 233 233 234 234 234 234 234 234 235 236 237 238 239 240 242 243 244 245 246 248 249 251 252 253 254 255 256 257 257 257 257 257 258 258 259 260 262 263 264 265 266 267 269 270 271 271 272 273 273 273 273 273 273 273 272 271 270 269 269 268 267 265 264 262 261 260
252 251 249 247 245 244 242 241 240 239 239 238 237 235 234 233 232 231 230 229 229 229 229 229 230 230 231 232 232 233 234 236 237 239 240 241 243 244 245 246 248 249 250 251 252 253 254 254 254 254 255 255 256 256 257 258 259 261 261 263 264 265 266 267 269 270 271 271 272 272 273 273 273 272 272 272 271 271 270 270 269 268 267 266 264
254 254 252 252 250 248 246 244 243 242 241 240 239 237 236 234 233 231 229 228 227 227 227 227 228 229 230 231 232 233 234 236 237 239 240 242 243 245 246 247 248 249 250 250 251 252 252 253 254 254 255 255 255 256 257 257 258 259 260 260 261 262 263 264 265 266 267 267 268 269 270 270 271 271 272 271 271 269 268 265 265 267 267 266 265
258 256 255 254 255 252 250 248 247 246 244 243 241 240 238 236 234 232 230 229 229 229 229 229 230 231 231 232 233 235 236 238 240 242 243 245 246 248 249 250 251 252 252 252 253 253 253 253 254 254 255 255 255 256 256 257 258 259 259 260 260 260 260 261 261 262 262 262 264 265 266 267 267 268 268 268 268 267 263 259 259 261 262 261 261
260 259 258 257 256 256 255 252 251 250 249 247 245 243 241 240 238 236 235 235 234 233 233 234 235 236 236 237 237 238 240 241 243 245 247 248 250 252 252 253 253 254 255 255 255 255 255 255 255 255 255 255 255 256 256 257 258 259 260 260 260 261 260 260 259 259 258 258 260 260 261 262 261 262 263 262 262 262 259 257 256 257 257 258 257
261 260 260 259 258 258 257 256 253 252 252 251 250 248 245 244 243 242 241 240 240 239 238 239 240 241 241 242 242 243 244 245 246 248 250 252 254 256 257 258 258 258 258 258 258 258 258 257 258 258 258 258 257 257 257 257 258 258 259 260 261 261 262 262 261 261 259 258 259 258 259 259 257 258 259 257 258 258 257 256 256 256 255 255 255
260 261 261 260 260 259 258 257 256 255 254 253 253 251 249 248 247 246 245 244 244 244 243 244 245 246 246 246 246 247 248 249 250 251 252 254 256 258 259 261 262 263 263 263 263 263 263 262 262 261 261 261 261 260 260 260 260 260 260 261 262 262 263 263 264 263 262 261 260 259 258 257 255 256 256 255 256 256 256 255 254 255 255 254 254
260 261 261 261 261 260 259 258 258 257 256 255 254 253 252 251 250 249 248 247 247 247 247 248 248 249 249 249 250 250 251 252 252 253 254 255 256 257 258 259 261 262 263 265 266 267 267 267 266 266 265 265 264 264 264 264 264 263 263 263 264 264 264 265 265 264 264 263 262 261 259 257 255 255 254 254 255 256 256 254 253 254 255 254 254
261 260 259 260 260 259 259 259 259 258 258 257 257 256 254 253 252 252 251 251 250 250 250 251 252 252 253 253 253 254 254 254 254 254 255 255 256 256 257 258 259 261 263 265 266 267 268 268 268 268 267 267 267 267 267 267 266 265 265 264 265 265 265 266 266 265 265 264 263 262 261 259 258 256 255 255 255 256 256 256 254 255 255 254 255
259 259 260 259 259 259 260 260 259 259 258 258 258 258 256 255 254 254 254 254 253 253 254 255 256 256 256 257 257 258 258 258 258 258 258 258 258 258 259 260 261 262 264 266 267 268 269 269 269 269 268 268 268 268 268 268 267 266 266 266 266 266 267 267 267 267 267 266 265 264 263 262 261 259 258 258 257 257 257 257 256 256 256 255 255
252 255 257 258 259 259 259 259 259 259 259 259 259 258 258 257 256 255 255 255 255 256 256 257 258 258 259 259 260 261 261 262 262 262 261 261 261 261 262 263 264 264 265 266 267 268 269 270 270 270 270 269 269 268 268 267 268 267 267 267 267 268 269 269 269 270 270 270 269 268 267 266 265 264 262 261 260 260 259 258 257 256 256 257 258
249 250 253 255 256 257 257 257 258 259 259 259 259 259 259 258 257 257 256 256 256 256 256 257 258 259 260 260 261 262 263 263 263 263 263 263 263 264 265 265 265 265 266 266 267 268 269 270 271 272 272 271 270 270 269 269 268 269 269 269 270 271 271 272 272 273 273 273 273 272 271 270 269 268 267 266 265 265 263 261 260 260 259 259 261
252 250 250 252 254 254 255 255 256 257 258 259 259 259 260 259 258 257 257 256 256 256 256 257 257 258 259 260 261 262 263 264 264 265 265 265 266 266 266 267 267 268 268 269 271 272 272 273 273 273 273 273 272 272 271 271 271 271 271 272 273 274 274 275 275 276 276 275 275 274 274 274 273 273 272 271 270 269 269 267 266 264 263 263 265
257 254 252 252 253 254 254 254 254 254 256 258 258 259 260 260 260 259 258 258 257 256 256 257 258 258 259 260 262 263 263 264 265 266 267 267 267 268 268 268 269 269 270 272 274 275 277 278 278 278 277 275 274 273 272 272 272 272 273 273 274 275 276 276 276 277 277 277 277 277 277 277 277 278 277 277 276 275 274 273 272 270 269 268 269
260 258 256 255 254 255 255 255 255 255 255 256 257 258 258 259 260 260 260 259 259 258 258 259 259 260 260 261 262 263 264 265 266 267 268 268 268 268 268 269 269 270 271 272 274 275 277 279 281 281 281 279 277 275 273 272 272 272 273 273 274 275 275 276 277 277 277 278 279 280 281 282 283 283 282 282 281 280 280 279 278 277 275 274 274
261 260 258 257 256 256 256 257 257 256 256 256 256 257 258 258 259 260 261 261 261 261 261 261 261 261 262 262 262 263 264 264 265 267 267 268 269 269 269 269 269 270 271 272 273 274 275 277 279 281 281 281 280 278 276 274 273 273 273 274 274 275 276 276 277 278 278 279 281 283 284 285 286 286 286 286 285 285 285 284 284 283 282 281 280
266 263 261 259 258 258 258 258 257 257 256 257 257 256 257 258 259 260 261 262 263 264 264 264 264 264 264 264 264 264 264 265 266 267 267 268 269 270 270 270 270 270 271 272 272 273 274 276 278 279 280 281 281 280 278 276 275 274 274 274 275 276 276 277 279 280 280 281 282 284 285 286 286 287 287 288 288 288 288 287 287 287 286 286 285
268 268 267 264 262 260 259 259 258 258 257 257 257 257 257 258 259 260 262 263 265 266 266 266 266 267 267 267 267 266 266 267 267 268 268 269 269 270 271 271 271 271 272 272 273 273 275 276 278 279 281 281 282 281 279 278 276 276 276 276 276 277 277 278 280 281 281 282 282 283 284 285 286 287 288 288 288 288 288 288 288 288 288 289 288
267 268 269 269 267 265 262 260 260 260 259 258 257 257 258 259 260 261 262 264 265 266 266 267 268 269 269 269 268 268 268 268 269 269 270 270 270 271 272 273 273 273 273 274 274 275 276 278 279 280 282 283 283 282 281 279 278 277 277 277 277 278 278 279 281 281 282 282 282 283 284 285 286 287 287 288 288 288 288 288 288 289 289 289 289
269 267 267 268 269 269 266 263 262 261 261 261 260 259 259 260 261 263 264 265 265 266 266 267 268 268 269 269 269 270 270 270 270 271 271 272 272 273 273 274 274 274 275 276 277 278 280 281 281 282 283 284 284 283 282 280 279 279 279 279 279 279 279 280 281 282 282 282 283 284 284 285 286 286 287 287 288 288 288 288 288 288 288 289 289
273 271 268 267 267 269 269 267 264 263 262 262 262 262 262 263 263 264 265 265 266 267 267 268 268 269 269 270 270 270 271 271 271 272 272 273 274 274 274 275 275 276 277 279 280 281 282 283 283 283 283 284 284 284 283 281 280 280 280 280 280 279 280 281 282 282 283 283 284 284 285 285 286 286 286 287 287 287 287 287 287 288 288 288 289
274 274 273 271 268 267 267 268 267 266 265 264 264 263 264 264 264 264 265 265 266 267 268 269 269 269 270 270 270 271 271 271 272 272 273 274 274 275 275 276 277 278 279 280 281 282 282 282 282 282 282 283 283 283 282 282 281 281 282 282 282 281 281 281 282 283 283 284 284 284 284 285 285 285 286 286 286 286 286 287 287 287 288 288 289
276 275 274 273 271 268 267 267 268 268 267 266 266 265 265 265 265 265 265 265 265 266 267 267 268 269 270 270 270 270 271 271 271 272 273 274 275 276 277 278 278 279 279 279 279 279 280 280 280 281 282 282 282 283 283 283 283 283 283 283 283 283 283 283 283 283 283 284 284 284 284 284 284 285 285 285 285 286 286 286 287 287 288 288 288
277 277 276 274 272 270 269 269 268 268 268 268 267 266 266 266 267 267 266 266 266 266 266 267 269 269 269 269 269 270 270 270 271 272 274 275 276 277 277 277 277 277 277 277 278 279 280 280 281 282 282 282 283 283 283 283 283 284 284 284 284 284 284 284 284 284 283 283 284 284 285 285 285 285 285 285 285 286 286 286 286 287 287 287 287
277 277 276 275 274 272 272 272 271 269 268 268 268 267 267 266 266 267 267 268 268 268 269 270 270 269 269 268 269 269 270 270 271 272 273 273 274 274 274 275 276 276 278 279 280 281 281 282 282 282 282 283 283 283 283 283 283 283 283 284 284 284 284 284 284 285 284 284 283 284 284 285 285 285 285 285 285 285 285 285 286 286 286 286 286
277 275 274 274 274 274 274 273 272 271 270 269 269 269 268 268 268 268 268 268 269 270 271 271 270 269 268 268 268 269 269 269 270 270 271 271 272 273 274 276 277 278 279 280 281 282 282 282 282 282 283 283 283 283 283 282 282 282 281 282 282 282 283 283 284 284 284 284 284 284 284 284 284 285 285 285 285 285 285 285 285 285 285 285 285
278 276 274 273 273 273 272 272 271 270 270 269 269 268 268 268 268 268 268 268 268 269 269 269 268 268 268 268 268 268 269 269 270 271 271 272 273 274 275 277 278 279 280 280 281 281 281 281 281 281 282 282 282 282 281 281 280 280 280 280 280 281 281 282 282 283 284 284 284 284 284 284 285 285 285 285 285 285 285 285 285 285 285 285 285
280 278 276 274 273 272 270 269 268 268 268 268 268 268 268 268 268 267 267 267 268 268 268 268 268 268 268 268 269 270 271 272 273 274 275 275 275 276 276 277 277 278 279 280 280 280 280 280 280 280 281 281 282 282 282 282 281 281 281 281 281 281 281 281 282 282 283 283 284 284 284 284 285 285 285 285 286 286 286 286 285 285 285 285 285
279 278 277 276 274 272 270 268 267 267 268 268 268 269 269 268 268 267 268 268 268 269 269 269 269 269 269 270 270 271 273 274 275 276 277 277 277 277 277 277 277 277 278 279 280 281 280 280 279 280 281 282 282 283 283 283 283 283 283 283 283 282 282 283 283 283 284 284 285 285 285 285 285 285 285 284 284 285 285 285 285 285 285 285 285
Height
10802 10802 10803 10804 10805 10807 10808 10810 10811 10812 10813 10814 10815 10816 10817 10818 10819 10821 10823 10825 10827 10829 10831 10834 10835 10837 10839 10840 10841 10842 10844 10847 10849 10850 10852 10854 10857 10858 10859 10859 10861 10863 10864 10865 10866 10868 10868 10869 10870 10871 10872 10874 10875 10875 10877 10878 10879 10880 10881 10882 10883 10884 10884 10885 10885 10885 10886 10887 10888 10889 10890 10891 10892 10894 10895 10897 10898 10899 10899 10899 10899 10898 10899 10900 10900
10801 10801 10801 10802 10803 10805 10806 10808 10809 10811 10811 10812 10813 10814 10815 10816 10817 10819 10820 10822 10824 10826 10828 10830 10832 10834 10836 10837 10839 10840 10841 10844 10846 10847 10849 10851 10853 10855 10856 10857 10858 10859 10861 10862 10863 10865 10865 10866 10867 10868 10869 10870 10872 10873 10874 10875 10876 10878 10879 10880 10881 10881 10882 10882 10883 10883 10883 10884 10885 10886 10887 10888 10889 10890 10892 10893 10894 10895 10897 10897 10897 10896 10896 10897 10897
10800 10800 10800 10801 10802 10803 10804 10806 10807 10809 10810 10811 10811 10812 10813 10814 10815 10817 10818 10820 10822 10823 10825 10827 10829 10831 10833 10834 10836 10838 10839 10841 10843 10844 10845 10848 10850 10851 10853 10854 10855 10856 10858 10859 10860 10862 10862 10863 10864 10865 10866 10867 10869 10870 10871 10872 10873 10875 10876 10877 10878 10878 10879 10879 10880 10880 10881 10881 10882 10883 10884 10885 10886 10886 10887 10889 10890 10891 10893 10894 10895 10894 10894 10894 10895
10799 10799 10799 10800 10800 10801 10802 10804 10805 10807 10808 10809 10810 10810 10811 10812 10813 10815 10816 10817 10819 10821 10823 10824 10826 10828 10830 10832 10834 10835 10836 10837 10839 10841 10842 10844 10846 10848 10850 10851 10852 10854 10855 10856 10857 10859 10860 10860 10861 10862 10863 10864 10865 10866 10867 10869 10870 10871 10872 10873 10874 10875 10876 10876 10877 10877 10878 10879 10879 10880 10881 10882 10882 10883 10884 10885 10886 10887 10889 10890 10891 10891 10891 10891 10892
10799 10798 10798 10799 10799 10800 10801 10802 10803 10804 10806 10807 10808 10809 10809 10810 10811 10812 10814 10815 10816 10818 10820 10821 10823 10825 10827 10829 10831 10832 10834 10835 10836 10837 10838 10840 10842 10843 10845 10847 10849 10850 10851 10852 10854 10855 10856 10857 10858 10859 10860 10861 10862 10863 10864 10865 10866 10867 10868 10869 10870 10871 10872 10873 10873 10874 10875 10875 10876 10877 10878 10878 10879 10880 10880 10881 10882 10883 10883 10885 10887 10888 10888 10888 10888
10799 10798 10798 10798 10798 10799 10799 10800 10801 10802 10804 10805 10806 10807 10808 10808 10809 10810 10811 10813 10814 10815 10817 10818 10820 10822 10824 10826 10827 10829 10830 10832 10833 10833 10834 10835 10837 10839 10840 10843 10845 10846 10848 10849 10850 10851 10852 10853 10854 10856 10857 10857 10858 10859 10860 10861 10862 10863 10864 10865 10866 10866 10868 10869 10869 10870 10871 10872 10872 10873 10873 10874 10875 10876 10876 10877 10878 10878 10879 10880 10881 10883 10884 10885 10885
10798 10798 10797 10797 10797 10798 10798 10798 10799 10800 10801 10802 10804 10805 10806 10807 10807 10808 10810 10810 10811 10813 10814 10816 10817 10819 10821 10823 10824 10826 10827 10829 10830 10831 10832 10832 10834 10835 10837 10839 10841 10842 10844 10845 10846 10847 10849 10850 10851 10853 10854 10854 10855 10856 10857 10858 10859 10859 10860 10861 10861 10862 10863 10864 10865 10866 10867 10868 10869 10869 10869 10870 10870 10871 10872 10872 10873 10874 10874 10875 10876 10877 10879 10881 10882
10798 10798 10797 10797 10797 10797 10797 10797 10798 10798 10799 10800 10801 10802 10803 10804 10806 10807 10808 10809 10810 10811 10812 10814 10815 10817 10819 10820 10822 10823 10825 10826 10827 10829 10830 10831 10832 10833 10834 10835 10837 10839 10840 10842 10843 10844 10845 10846 10848 10849 10850 10851 10852 10852 10853 10854 10855 10856 10856 10857 10857 10858 10859 10860 10861 10861 10862 10864 10865 10865 10866 10866 10866 10866 10866 10867 10868 10869 10870 10871 10872 10872 10874 10875 10877
10798 10798 10797 10797 10796 10796 10796 10796 10797 10797 10798 10799 10800 10801 10802 10802 10803 10804 10805 10807 10808 10809 10810 10812 10813 10815 10816 10818 10820 10821 10822 10824 10825 10826 10827 10828 10829 10830 10831 10833 10834 10836 10837 10838 10840 10841 10841 10842 10843 10844 10845 10846 10847 10848 10849 10850 10851 10851 10852 10853 10853 10854 10855 10856 10856 10857 10858 10859 10860 10861 10861 10861 10861 10860 10861 10862 10863 10864 10865 10866 10868 10868 10869 10870 10872
10798 10798 10798 10797 10797 10796 10796 10796 10796 10796 10797 10798 10799 10799 10800 10801 10801 10802 10803 10804 10805 10807 10808 10809 10811 10812 10814 10815 10817 10818 10819 10820 10822 10823 10824 10826 10826 10827 10828 10830 10831 10833 10834 10836 10837 10838 10839 10839 10839 10840 10841 10842 10842 10843 10844 10845 10846 10846 10847 10848 10849 10850 10851 10851 10852 10852 10853 10854 10854 10854 10855 10855 10856 10855 10855 10856 10857 10858 10860 10862 10863 10864 10865 10866 10867
10798 10798 10798 10797 10797 10796 10796 10796 10795 10795 10796 10796 10797 10798 10799 10799 10800 10801 10801 10802 10803 10804 10805 10807 10808 10809 10811 10812 10813 10815 10816 10817 10818 10820 10821 10822 10823 10824 10825 10826 10828 10829 10831 10832 10833 10834 10836 10836 10836 10837 10838 10839 10839 10839 10840 10840 10841 10841 10842 10842 10843 10844 10844 10845 10845 10846 10847 10847 10847 10847 10847 10848 10850 10850 10850 10851 10852 10853 10854 10856 10857 10859 10860 10861 10862
10798 10798 10797 10797 10797 10796 10796 10796 10796 10795 10795 10795 10796 10797 10797 10798 10798 10799 10800 10800 10801 10802 10803 10804 10805 10806 10808 10809 10810 10811 10812 10814 10815 10816 10817 10818 10819 10820 10821 10822 10824 10825 10826 10828 10829 10830 10831 10832 10833 10834 10834 10836 10837 10837 10836 10836 10837 10837 10838 10838 10838 10838 10838 10838 10839 10839 10840 10841 10841 10841 10841 10841 10843 10844 10845 10846 10847 10847 10848 10850 10851 10853 10855 10856 10858
10798 10798 10797 10797 10797 10796 10796 10796 10795 10795 10795 10795 10795 10795 10796 10796 10797 10797 10798 10799 10799 10800 10801 10802 10803 10804 10805 10806 10807 10808 10809 10810 10811 10812 10813 10814 10815 10816 10817 10818 10820 10821 10822 10823 10825 10826 10827 10828 10829 10829 10830 10831 10832 10833 10833 10833 10833 10834 10834 10835 10834 10834 10833 10833 10833 10834 10834 10835 10836 10836 10836 10836 10837 10838 10840 10841 10842 10843 10844 10845 10846 10848 10849 10851 10852
10798 10798 10798 10797 10797 10796 10796 10796 10795 10795 10795 10795 10795 10795 10795 10795 10796 10796 10796 10797 10798 10798 10799 10800 10801 10802 10803 10803 10804 10805 10806 10807 10808 10808 10809 10811 10811 10812 10813 10814 10816 10817 10818 10819 10820 10821 10822 10823 10824 10825 10825 10826 10827 10827 10828 10829 10829 10830 10830 10830 10831 10830 10830 10830 10829 10829 10829 10830 10830 10830 10830 10831 10831 10833 10834 10835 10837 10838 10839 10840 10841 10842 10843 10845 10847
10798 10798 10797 10797 10797 10796 10796 10795 10795 10795 10795 10794 10794 10794 10794 10795 10795 10795 10795 10796 10796 10796 10797 10798 10799 10800 10801 10801 10802 10803 10803 10804 10805 10806 10806 10807 10808 10809 10810 10811 10812 10813 10814 10815 10816 10817 10818 10819 10819 10820 10820 10821 10821 10822 10822 10823 10823 10824 10825 10825 10826 10826 10825 10825 10825 10824 10824 10824 10824 10824 10824 10825 10826 10827 10828 10829 10830 10832 10833 10833 10835 10836 10837 10839 10840
10798 10797 10797 10797 10796 10796 10796 10795 10795 10795 10794 10794 10794 10794 10794 10794 10794 10794 10795 10795 10795 10795 10795 10796 10797 10798 10799 10799 10800 10801 10801 10802 10803 10803 10804 10805 10805 10806 10807 10808 10809 10810 10811 10812 10812 10813 10813 10814 10814 10815 10815 10816 10816 10816 10817 10817 10818 10818 10818 10819 10820 10820 10820 10820 10820 10820 10819 10819 10819 10819 10819 10820 10820 10821 10822 10823 10824 10825 10826 10827 10828 10829 10831 10832 10834
10797 10797 10796 10796 10796 10796 10795 10795 10795 10794 10794 10794 10793 10793 10793 10793 10794 10794 10794 10794 10794 10794 10794 10795 10795 10796 10797 10797 10798 10799 10799 10800 10801 10801 10802 10802 10803 10804 10804 10805 10806 10807 10807 10808 10809 10809 10809 10810 10810 10811 10811 10812 10812 10812 10812 10812 10812 10813 10813 10814 10814 10814 10815 10815 10815 10814 10814 10814 10814 10814 10814 10814 10815 10816 10817 10818 10819 10819 10820 10821 10822 10823 10824 10825 10826
10797 10796 10796 10795 10795 10795 10795 10795 10795 10794 10794 10794 10793 10793 10793 10793 10793 10793 10793 10793 10793 10794 10794 10794 10794 10795 10795 10796 10796 10797 10798 10798 10799 10799 10800 10800 10801 10801 10802 10803 10803 10804 10805 10805 10806 10806 10806 10806 10806 10807 10807 10808 10808 10808 10808 10808 10808 10808 10809 10809 10809 10809 10810 10810 10810 10810 10810 10809 10809 10809 10809 10810 10810 10811 10811 10812 10813 10814 10815 10815 10816 10817 10818 10819 10819
10795 10795 10795 10794 10794 10794 10794 10794 10794 10794 10793 10793 10793 10793 10792 10792 10792 10792 10792 10793 10793 10793 10793 10793 10793 10794 10794 10794 10795 10795 10796 10796 10797 10797 10798 10798 10799 10799 10800 10800 10801 10801 10802 10802 10803 10803 10803 10803 10803 10804 10804 10804 10804 10804 10804 10805 10805 10805 10805 10805 10805 10805 10805 10805 10805 10805 10805 10805 10805 10805 10805 10805 10806 10806 10807 10808 10809 10809 10810 10811 10812 10812 10813 10813 10813
10794 10794 10793 10793 10793 10793 10793 10793 10793 10793 10792 10792 10792 10792 10792 10792 10792 10792 10792 10792 10792 10792 10792 10792 10792 10793 10793 10793 10793 10794 10794 10795 10795 10795 10796 10796 10796 10797 10797 10798 10798 10799 10799 10800 10800 10800 10800 10801 10801 10801 10801 10801 10801 10801 10801 10801 10801 10801 10801 10801 10801 10801 10801 10801 10801 10801 10801 10801 10801 10801 10801 10801 10802 10802 10802 10803 10804 10805 10805 10806 10807 10808 10807 10807 10807
10792 10792 10792 10791 10791 10791 10791 10791 10791 10791 10791 10791 10791 10791 10791 10791 10791 10791 10791 10791 10791 10791 10791 10791 10791 10792 10792 10792 10792 10793 10793 10793 10793 10794 10794 10794 10794 10795 10795 10795 10796 10796 10796 10797 10797 10797 10797 10797 10797 10798 10797 10798 10797 10797 10797 10797 10797 10797 10797 10797 10797 10797 10797 10797 10797 10797 10797 10797 10797 10797 10797 10797 10797 10798 10799 10799 10800 10800 10801 10802 10802 10803 10802 10802 10803
10789 10789 10789 10790 10789 10789 10789 10789 10789 10789 10789 10789 10789 10789 10789 10789 10789 10789 10789 10789 10789 10790 10790 10790 10790 10790 10791 10791 10791 10791 10792 10792 10792 10792 10793 10793 10793 10793 10793 10794 10794 10794 10794 10794 10794 10794 10794 10794 10794 10794 10794 10794 10794 10794 10794 10794 10794 10794 10794 10793 10793 10793 10793 10793 10793 10793 10793 10793 10792 10793 10792 10793 10793 10793 10794 10795 10795 10795 10796 10797 10797 10797 10797 10798 10799
10787 10787 10787 10787 10787 10787 10787 10787 10787 10787 10786 10787 10787 10787 10788 10787 10787 10788 10788 10788 10788 10788 10789 10789 10789 10789 10790 10790 10790 10790 10790 10791 10791 10791 10791 10791 10791 10792 10792 10792 10792 10792 10792 10792 10792 10792 10792 10792 10792 10792 10792 10792 10791 10791 10791 10791 10791 10791 10790 10790 10790 10790 10789 10789 10789 10789 10789 10788 10788 10788 10788 10788 10788 10789 10789 10790 10790 10791 10791 10792 10792 10792 10792 10793 10794
10784 10784 10785 10785 10785 10785 10785 10785 10785 10784 10784 10785 10785 10785 10785 10786 10786 10786 10786 10786 10787 10787 10787 10788 10788 10788 10788 10788 10788 10788 10788 10789 10789 10789 10789 10789 10789 10790 10790 10790 10791 10791 10791 10791 10790 10790 10790 10790 10789 10789 10789 10789 10789 10788 10788 10788 10788 10787 10787 10787 10787 10786 10786 10786 10786 10785 10785 10785 10784 10784 10784 10784 10784 10784 10785 10785 10786 10786 10787 10787 10786 10787 10787 10788 10789
10782 10782 10782 10782 10782 10782 10782 10783 10782 10782 10782 10782 10783 10783 10783 10784 10784 10784 10784 10785 10785 10785 10785 10786 10786 10786 10786 10786 10786 10786 10786 10786 10786 10786 10786 10787 10787 10787 10788 10788 10788 10788 10788 10788 10788 10788 10788 10787 10787 10787 10786 10786 10786 10786 10785 10785 10784 10784 10784 10784 10783 10783 10783 10783 10782 10782 10782 10781 10780 10780 10780 10780 10780 10780 10781 10781 10781 10782 10783 10783 10782 10782 10783 10783 10784
10779 10779 10779 10779 10779 10779 10780 10780 10779 10779 10780 10779 10780 10780 10781 10781 10781 10782 10782 10782 10783 10783 10783 10783 10783 10783 10783 10783 10784 10784 10784 10784 10784 10784 10784 10784 10785 10785 10785 10785 10785 10785 10785 10785 10785 10785 10785 10785 10784 10784 10784 10783 10783 10783 10782 10782 10781 10781 10781 10780 10780 10780 10780 10779 10779 10779 10778 10778 10777 10776 10776 10776 10776 10776 10777 10777 10777 10778 10779 10780 10779 10778 10778 10779 10779
10776 10775 10777 10776 10775 10776 10777 10776 10776 10777 10776 10776 10776 10777 10778 10778 10778 10779 10779 10780 10780 10780 10780 10781 10780 10780 10781 10781 10781 10781 10781 10781 10781 10781 10781 10782 10782 10781 10781 10782 10782 10782 10782 10782 10782 10782 10781 10781 10781 10781 10781 10780 10780 10779 10779 10779 10778 10778 10777 10777 10777 10776 10776 10775 10775 10775 10774 10774 10773 10773 10772 10772 10773 10773 10773 10773 10773 10773 10774 10775 10775 10774 10774 10775 10775
10772 10773 10774 10773 10772 10773 10773 10772 10773 10774 10773 10773 10773 10774 10775 10775 10775 10775 10776 10777 10776 10777 10777 10777 10777 10778 10778 10778 10778 10778 10778 10778 10778 10778 10778 10778 10778 10778 10777 10777 10777 10777 10777 10777 10777 10777 10777 10777 10777 10777 10777 10777 10776 10776 10775 10775 10775 10774 10774 10773 10773 10772 10772 10771 10771 10770 10770 10770 10769 10769 10768 10768 10768 10768 10768 10768 10768 10768 10769 10770 10770 10769 10770 10770 10770
10769 10770 10771 10769 10770 10771 10769 10769 10770 10770 10770 10769 10769 10770 10771 10771 10771 10772 10772 10772 10772 10773 10774 10774 10774 10774 10774 10774 10774 10774 10774 10774 10774 10774 10774 10774 10774 10774 10774 10774 10773 10773 10773 10773 10773 10773 10773 10773 10773 10772 10773 10772 10772 10772 10772 10771 10771 10770 10770 10769 10769 10769 10768 10767 10766 10766 10766 10765 10765 10764 10764 10764 10763 10763 10763 10763 10763 10762 10763 10765 10764 10764 10764 10764 10764
10767 10767 10767 10766 10767 10767 10766 10766 10767 10767 10766 10765 10765 10766 10767 10767 10767 10768 10768 10768 10769 10769 10769 10770 10770 10770 10770 10770 10770 10770 10770 10769 10770 10770 10770 10771 10771 10770 10770 10770 10770 10770 10769 10769 10769 10769 10769 10769 10768 10768 10768 10768 10768 10768 10768 10767 10767 10767 10766 10766 10765 10765 10764 10763 10762 10762 10761 10761 10761 10760 10759 10759 10758 10758 10758 10757 10757 10757 10757 10758 10758 10758 10758 10758 10758
10764 10764 10764 10764 10763 10763 10763 10763 10764 10763 10763 10762 10762 10763 10763 10763 10763 10763 10764 10764 10765 10765 10765 10766 10766 10766 10766 10766 10766 10766 10766 10765 10765 10766 10766 10767 10767 10767 10767 10766 10766 10766 10766 10765 10765 10765 10765 10764 10764 10764 10764 10764 10764 10764 10763 10763 10762 10762 10762 10761 10761 10761 10760 10759 10758 10757 10757 10757 10756 10756 10755 10754 10753 10753 10753 10752 10752 10752 10752 10752 10753 10752 10752 10752 10752
10760 10760 10760 10760 10759 10759 10760 10760 10760 10759 10759 10759 10758 10759 10758 10758 10759 10759 10760 10760 10761 10761 10761 10761 10761 10761 10761 10761 10761 10761 10761 10761 10761 10761 10762 10762 10762 10762 10762 10762 10762 10761 10761 10761 10761 10761 10760 10760 10760 10759 10759 10759 10759 10759 10758 10758 10757 10757 10756 10756 10756 10756 10755 10753 10753 10752 10752 10751 10751 10751 10750 10749 10748 10748 10748 10747 10747 10746 10746 10746 10746 10746 10745 10745 10744
10756 10757 10756 10755 10756 10756 10756 10756 10756 10755 10755 10755 10755 10754 10754 10755 10755 10755 10756 10756 10756 10757 10757 10757 10757 10756 10756 10757 10756 10756 10756 10756 10756 10757 10757 10757 10757 10757 10757 10757 10757 10757 10757 10756 10756 10756 10756 10756 10755 10755 10754 10754 10753 10753 10753 10753 10752 10751 10751 10751 10750 10750 10749 10748 10747 10746 10746 10745 10745 10745 10744 10743 10743 10742 10742 10741 10740 10740 10739 10739 10739 10738 10737 10737 10736
10752 10753 10752 10752 10753 10752 10752 10752 10752 10752 10752 10752 10751 10751 10751 10751 10751 10751 10751 10752 10752 10752 10752 10752 10752 10752 10752 10752 10752 10751 10751 10751 10752 10752 10752 10752 10752 10752 10752 10752 10752 10752 10752 10752 10752 10752 10752 10752 10751 10751 10750 10749 10748 10748 10747 10747 10747 10746 10745 10745 10745 10744 10743 10742 10741 10740 10740 10739 10738 10738 10738 10737 10736 10735 10734 10734 10733 10732 10732 10731 10731 10730 10730 10729 10729
10748 10749 10749 10749 10748 10747 10748 10748 10748 10748 10748 10747 10748 10747 10747 10747 10746 10747 10747 10747 10748 10748 10748 10748 10748 10747 10747 10747 10747 10747 10747 10747 10747 10747 10747 10747 10747 10747 10747 10746 10746 10746 10746 10746 10747 10747 10747 10746 10746 10746 10745 10744 10743 10743 10742 10742 10742 10741 10741 10740 10739 10739 10737 10736 10735 10734 10733 10732 10732 10731 10731 10730 10729 10728 10727 10727 10726 10726 10725 10724 10724 10723 10723 10722 10722
10743 10744 10744 10744 10743 10743 10743 10743 10744 10744 10744 10743 10743 10743 10743 10742 10742 10743 10743 10742 10743 10743 10744 10744 10743 10743 10743 10743 10743 10743 10742 10742 10742 10742 10742 10742 10742 10741 10741 10741 10741 10741 10741 10741 10741 10741 10740 10740 10740 10740 10740 10739 10738 10737 10737 10737 10736 10736 10735 10735 10734 10733 10732 10730 10728 10728 10726 10725 10725 10724 10724 10723 10722 10722 10721 10720 10720 10719 10718 10717 10717 10716 10715 10715 10714
10738 10738 10739 10739 10738 10738 10738 10738 10738 10739 10739 10739 10739 10739 10738 10738 10737 10738 10738 10738 10738 10739 10740 10740 10739 10738 10738 10739 10738 10738 10737 10737 10737 10737 10736 10737 10737 10736 10736 10736 10736 10736 10736 10736 10736 10735 10735 10734 10734 10734 10734 10733 10732 10731 10731 10731 10731 10730 10730 10729 10728 10727 10725 10723 10722 10721 10720 10718 10718 10717 10716 10716 10716 10715 10714 10713 10712 10711 10710 10709 10708 10707 10707 10706 10705
10733 10733 10733 10733 10733 10732 10732 10733 10733 10733 10734 10734 10734 10734 10733 10733 10733 10732 10733 10732 10732 10734 10735 10735 10734 10733 10733 10733 10733 10733 10732 10732 10732 10731 10731 10731 10731 10731 10730 10730 10730 10731 10731 10731 10730 10730 10729 10729 10728 10728 10727 10726 10725 10724 10724 10724 10724 10724 10724 10723 10722 10721 10719 10717 10715 10714 10713 10712 10711 10710 10709 10708 10708 10707 10706 10705 10704 10703 10701 10700 10699 10697 10696 10695 10695
10728 10727 10727 10727 10727 10726 10726 10726 10726 10727 10728 10729 10728 10728 10728 10728 10728 10728 10727 10727 10726 10728 10729 10729 10728 10727 10727 10727 10728 10727 10727 10726 10726 10726 10725 10725 10725 10725 10725 10725 10725 10725 10725 10725 10724 10724 10723 10723 10722 10722 10721 10719 10718 10717 10716 10716 10716 10716 10716 10716 10716 10714 10712 10710 10709 10707 10705 10704 10704 10702 10701 10700 10699 10698 10697 10696 10694 10693 10691 10690 10688 10687 10686 10685 10684
10723 10722 10722 10721 10721 10720 10720 10720 10719 10721 10722 10723 10722 10722 10722 10722 10722 10722 10722 10721 10722 10722 10723 10722 10722 10721 10721 10721 10721 10720 10720 10720 10720 10719 10719 10720 10720 10720 10720 10720 10719 10719 10719 10719 10718 10718 10717 10716 10715 10715 10714 10712 10711 10710 10709 10708 10708 10708 10708 10709 10708 10707 10705 10702 10701 10700 10698 10696 10695 10694 10693 10692 10690 10689 10688 10686 10685 10683 10682 10680 10679 10677 10676 10675 10674
10719 10718 10717 10716 10715 10715 10714 10713 10713 10715 10715 10715 10716 10716 10716 10716 10716 10716 10716 10716 10716 10716 10715 10715 10716 10716 10715 10714 10714 10714 10714 10713 10713 10713 10713 10713 10714 10714 10714 10713 10713 10712 10712 10712 10712 10711 10710 10709 10708 10707 10706 10705 10703 10702 10702 10701 10700 10700 10699 10700 10700 10699 10697 10695 10693 10691 10689 10688 10687 10685 10684 10683 10681 10680 10678 10676 10674 10673 10671 10670 10669 10668 10667 10666 10665
10714 10713 10712 10711 10711 10710 10709 10708 10708 10708 10707 10708 10709 10710 10710 10710 10710 10710 10710 10710 10710 10708 10708 10709 10709 10709 10708 10707 10707 10707 10707 10707 10706 10706 10706 10707 10707 10707 10707 10706 10706 10706 10705 10705 10705 10704 10703 10701 10700 10699 10698 10697 10696 10695 10694 10693 10692 10692 10691 10690 10692 10692 10689 10686 10685 10683 10680 10678 10677 10676 10675 10673 10671 10670 10668 10666 10664 10663 10661 10660 10659 10658 10657 10656 10655
10708 10707 10707 10707 10706 10705 10703 10703 10703 10702 10701 10701 10702 10703 10704 10704 10704 10703 10702 10703 10702 10701 10701 10702 10702 10701 10701 10701 10701 10701 10700 10699 10699 10699 10699 10699 10699 10699 10699 10699 10699 10698 10698 10697 10696 10695 10694 10693 10692 10691 10690 10689 10688 10687 10686 10685 10684 10683 10682 10681 10681 10683 10682 10679 10676 10674 10672 10669 10667 10666 10665 10663 10662 10660 10658 10656 10654 10653 10651 10650 10649 10648 10646 10645 10644
10702 10701 10702 10702 10701 10700 10699 10698 10697 10696 10696 10695 10695 10697 10697 10697 10696 10695 10696 10696 10695 10694 10694 10694 10694 10694 10695 10695 10694 10693 10693 10692 10691 10692 10692 10692 10692 10691 10691 10691 10690 10690 10689 10689 10688 10687 10686 10685 10684 10682 10682 10681 10680 10680 10679 10678 10676 10675 10673 10672 10670 10671 10672 10671 10668 10666 10663 10659 10657 10656 10655 10653 10652 10650 10648 10646 10644 10643 10641 10639 10638 10637 10636 10635 10633
10696 10696 10696 10696 10695 10694 10693 10693 10692 10691 10690 10690 10689 10690 10690 10690 10689 10689 10689 10688 10688 10688 10686 10686 10687 10688 10688 10687 10686 10686 10686 10685 10685 10685 10684 10684 10684 10683 10683 10682 10682 10681 10681 10680 10679 10678 10677 10676 10675 10674 10673 10673 10672 10671 10671 10669 10668 10667 10665 10663 10661 10660 10660 10659 10659 10658 10656 10652 10647 10645 10645 10643 10642 10641 10638 10636 10634 10632 10630 10628 10627 10626 10624 10623 10622
10690 10689 10689 10689 10689 10688 10688 10687 10686 10685 10684 10684 10684 10684 10683 10683 10682 10682 10681 10681 10681 10680 10678 10679 10681 10680 10680 10679 10679 10679 10678 10678 10678 10677 10677 10676 10676 10675 10674 10674 10674 10673 10672 10672 10671 10670 10669 10668 10666 10666 10665 10664 10663 10663 10662 10661 10660 10659 10657 10655 10653 10651 10649 10648 10647 10647 10646 10645 10640 10636 10634 10633 10631 10630 10628 10625 10623 10621 10619 10617 10616 10615 10613 10612 10610
10684 10684 10683 10682 10682 10681 10681 10680 10680 10680 10679 10678 10677 10677 10677 10676 10675 10675 10674 10674 10673 10671 10672 10674 10674 10672 10672 10672 10672 10671 10671 10670 10670 10670 10669 10669 10668 10668 10667 10666 10666 10665 10664 10663 10662 10661 10660 10659 10658 10657 10656 10655 10654 10654 10653 10652 10651 10650 10649 10647 10646 10643 10641 10639 10637 10635 10634 10633 10632 10630 10627 10623 10620 10619 10617 10615 10612 10610 10609 10607 10604 10603 10601 10600 10598
10678 10678 10677 10675 10675 10674 10673 10673 10673 10672 10672 10671 10670 10669 10669 10669 10668 10668 10667 10666 10665 10665 10666 10666 10665 10665 10665 10664 10664 10663 10663 10663 10662 10662 10662 10661 10661 10660 10659 10658 10657 10657 10657 10655 10654 10653 10652 10651 10650 10649 10648 10647 10646 10645 10644 10644 10643 10642 10641 10640 10638 10636 10634 10631 10628 10626 10623 10620 10618 10620 10620 10615 10610 10608 10606 10604 10601 10599 10597 10595 10593 10591 10589 10588 10586
10671 10670 10670 10669 10668 10667 10666 10666 10665 10665 10665 10664 10663 10662 10662 10662 10661 10661 10659 10658 10658 10659 10659 10658 10657 10657 10657 10656 10656 10655 10655 10655 10654 10654 10653 10653 10652 10652 10651 10651 10650 10649 10649 10648 10647 10646 10645 10644 10642 10641 10640 10639 10637 10636 10635 10634 10634 10633 10632 10631 10630 10628 10626 10624 10621 10618 10615 10611 10605 10605 10609 10606 10600 10597 10597 10593 10589 10588 10586 10583 10581 10579 10577 10575 10573
10662 10661 10661 10660 10660 10659 10658 10658 10657 10657 10657 10656 10656 10655 10655 10655 10653 10652 10651 10651 10651 10651 10650 10650 10649 10649 10649 10648 10647 10647 10647 10646 10645 10644 10644 10644 10643 10644 10644 10643 10643 10642 10641 10640 10639 10638 10637 10636 10634 10633 10632 10630 10628 10626 10625 10624 10624 10623 10622 10622 10621 10619 10617 10615 10613 10610 10607 10603 10597 10592 10594 10596 10590 10584 10587 10585 10578 10576 10574 10572 10568 10566 10565 10563 10560
10653 10652 10650 10650 10650 10650 10650 10649 10649 10648 10648 10648 10648 10647 10647 10647 10645 10644 10644 10643 10643 10643 10642 10641 10641 10641 10640 10640 10639 10639 10638 10637 10636 10635 10634 10634 10634 10635 10635 10635 10636 10635 10634 10633 10631 10630 10628 10627 10626 10624 10623 10621 10619 10617 10615 10613 10612 10612 10611 10611 10610 10609 10608 10606 10604 10601 10598 10596 10590 10583 10580 10582 10578 10571 10572 10574 10570 10566 10563 10559 10556 10553 10552 10550 10548